Find Starlink 30981

NORAD ID: 58494 Int'l Des: 2023-186 Owner: SPXS Country: US Constellation: starlink operational
LEOCIRCULAR

現在のビュー

3D地球を読み込み中...

About Starlink 30981

Starlink 30981 (NORAD 58494) is a starlink constellation satellite (v2 mini) launched Dec 3, 2023 by SPXS of US. It operates in LEO, CIRCULAR orbit with a mass of 730.00 kg.

次回通過

Passes for default location (London). Set your location on the main map for personalized predictions.

高度履歴

Loading altitude history...

軌道要素

1 58494U 23186X 26264.09174460 -.00000044 00000-0 79358-5 0 9997
2 58494 43.0047 39.8389 0000991 271.6443 88.4295 15.27577005155776
Epoch: Sep 21, 2026 • Age: 10 hours

現在のステータス

高度 486.5 km
遠地点 / 近地点 N/A
速度 7.63 km/s
衛星直下点 41.36°N, 33.84°W
打ち上げ日 Dec 3, 2023
運用期間 2.8 years
タイプ internet

技術仕様

分類 Payload
質量 730.00 kg
乾燥質量 700.00 kg
長さ 0.30 m
スパン 29.00 m
形状 ? Box + pan
製造者 SPXS
バスタイプ Starlink V2M
フェーズステータス In Orbit
所有者/国 SPXS/US

Most Searched